Atlanta Fulton, GA

1:36 AM EST on November 18, 2019 (GMT -0500)
Fulton County-Brown

Weather History for KFTY - September, 2019

Change the Weather History Date:

Monday, September 30, 2019

  Actual Average Record
Temperature  
Mean Temperature 82 °F 68 °F  
Max Temperature 96 °F 79 °F 87 °F (2008)
Min Temperature 67 °F 57 °F 43 °F (2003)
Degree Days  
Heating Degree Days 0 1  
Month to date heating degree days 0 9  
Since 1 July heating degree days 0 10  
Cooling Degree Days 17 4  
Month to date cooling degree days 442 244  
Year to date cooling degree days 2158 1681  
Growing Degree Days 32 (Base 50)    
Moisture  
Dew Point 66 °F    
Average Humidity 63    
Maximum Humidity 93    
Minimum Humidity 33    
Precipitation  
Precipitation 0.00 in 0.14 in 3.06 in (1989)
Month to date precipitation 1.66 3.98  
Year to date precipitation 31.95 39.40  
Sea Level Pressure  
Sea Level Pressure 30.12 in    
Wind  
Wind Speed 1 mph (North)    
Max Wind Speed 8 mph    
Max Gust Speed 13 mph    
Visibility 10 miles    
Events      
T = Trace of Precipitation, MM = Missing Value Source: NWS Daily Summary

Daily Weather History Graph

Daily Weather History Graph

Search for Another Location

Airport or City:

Astronomy

Sep. 30, 2019 Rise Set
Actual Time 7:31 AM EDT 7:24 PM EDT
Civil Twilight 7:06 AM EDT 7:48 PM EDT
Nautical Twilight 6:37 AM EDT 8:17 PM EDT
Astronomical Twilight 6:08 AM EDT 8:46 PM EDT
Moon 9:30 AM EDT (9/30) 9:04 PM EDT (9/30)
Length of Visible Light 12h 42m
Length of Day
11h 52m
Waxing Crescent, 5% of the Moon is Illuminated
Sep 30
Waxing Crescent
Oct 5
First Quarter
Oct 13
Full
Oct 21
Last Quarter
Oct 27
New

Hourly Weather History & Observations

Time (EDT) Temp. Heat Index Dew Point Humidity Pressure Visibility Wind Dir Wind Speed Gust Speed Precip Events Conditions
12:53 AM 72.0 °F - 68.0 °F 87% 30.15 in 10.0 mi Calm Calm - N/A   Clear
1:53 AM 72.0 °F - 68.0 °F 87% 30.15 in 10.0 mi Calm Calm - N/A   Clear
2:53 AM 70.0 °F - 66.9 °F 90% 30.14 in 10.0 mi Calm Calm - N/A   Clear
3:53 AM 70.0 °F - 66.9 °F 90% 30.13 in 10.0 mi Calm Calm - N/A   Clear
4:53 AM 70.0 °F - 66.9 °F 90% 30.14 in 10.0 mi Calm Calm - N/A   Clear
5:53 AM 69.1 °F - 66.0 °F 90% 30.14 in 10.0 mi Calm Calm - N/A   Clear
6:53 AM 68.0 °F - 66.0 °F 93% 30.15 in 9.0 mi Calm Calm - N/A   Clear
7:53 AM 68.0 °F - 64.9 °F 90% 30.16 in 9.0 mi Calm Calm - N/A   Clear
8:53 AM 73.0 °F - 68.0 °F 84% 30.17 in 10.0 mi Calm Calm - N/A   Clear
9:53 AM 80.1 °F 82.7 °F 68.0 °F 67% 30.18 in 10.0 mi Calm Calm - N/A   Clear
10:53 AM 86.0 °F 89.4 °F 68.0 °F 55% 30.18 in 10.0 mi Calm Calm - N/A   Clear
11:53 AM 89.1 °F 91.3 °F 66.0 °F 46% 30.17 in 10.0 mi Variable 3.5 mph - N/A   Clear
12:53 PM 91.9 °F 93.3 °F 64.0 °F 39% 30.16 in 10.0 mi Variable 4.6 mph - N/A   Clear
1:53 PM 91.9 °F 92.5 °F 62.1 °F 37% 30.14 in 10.0 mi Variable 3.5 mph - N/A   Partly Cloudy
2:53 PM 93.9 °F 94.0 °F 61.0 °F 33% 30.11 in 10.0 mi Calm Calm - N/A   Clear
3:53 PM 95.0 °F 95.6 °F 62.1 °F 33% 30.08 in 10.0 mi Variable 3.5 mph - N/A   Partly Cloudy
4:53 PM 93.9 °F 94.8 °F 62.1 °F 35% 30.07 in 10.0 mi NW 5.8 mph - N/A   Clear
5:53 PM 93.9 °F 95.2 °F 63.0 °F 36% 30.06 in 10.0 mi NNW 4.6 mph - N/A   Clear
6:53 PM 91.9 °F 94.1 °F 64.9 °F 41% 30.06 in 10.0 mi Calm Calm - N/A   Clear
7:53 PM 82.9 °F 85.4 °F 66.9 °F 58% 30.06 in 7.0 mi NE 3.5 mph - N/A   Clear
8:53 PM 80.1 °F 82.9 °F 69.1 °F 69% 30.07 in 10.0 mi Calm Calm - N/A   Clear
9:53 PM 77.0 °F - 69.1 °F 76% 30.07 in 10.0 mi Calm Calm - N/A   Clear
10:53 PM 75.0 °F - 68.0 °F 79% 30.09 in 10.0 mi Calm Calm - N/A   Clear
11:53 PM 75.0 °F - 68.0 °F 79% 30.09 in 10.0 mi Calm Calm - N/A   Clear